TimeCDT,TemperatureF,Dew PointF,Humidity,Sea Level PressureIn,VisibilityMPH,Wind Direction,Wind SpeedMPH,Gust SpeedMPH,PrecipitationIn,Events,Conditions,WindDirDegrees,DateUTC
12:53 AM,33.1,30.9,92,30.25,4.0,North,17.3,-,0.08,Snow,Light Snow,350,2013-05-03 05:53:00
1:19 AM,33.8,30.2,87,30.21,10.0,North,16.1,-,0.02,Rain,Light Rain,360,2013-05-03 06:19:00
1:53 AM,33.1,30.9,92,30.22,10.0,North,18.4,-,0.02,Rain,Light Rain,360,2013-05-03 06:53:00
2:03 AM,33.8,30.2,87,30.18,10.0,North,20.7,27.6,0.00,Rain,Light Rain,360,2013-05-03 07:03:00
2:53 AM,33.8,30.2,87,30.15,5.0,North,18.4,-,N/A,Snow,Light Snow,360,2013-05-03 07:53:00
3:13 AM,33.8,30.2,87,30.15,9.0,North,18.4,26.5,0.00,Rain,Light Rain,360,2013-05-03 08:13:00
3:53 AM,33.1,30.0,89,30.19,8.0,North,18.4,-,0.00,Rain,Light Rain,350,2013-05-03 08:53:00
4:15 AM,33.8,30.2,87,30.15,2.5,North,17.3,-,0.02,Snow,Light Snow,350,2013-05-03 09:15:00
4:25 AM,33.8,30.2,87,30.15,3.0,North,16.1,-,0.02,Snow,Light Snow,350,2013-05-03 09:25:00
4:36 AM,33.8,30.2,87,30.15,3.0,North,16.1,-,0.03,Snow,Light Snow,360,2013-05-03 09:36:00
4:44 AM,33.8,30.2,87,30.15,4.0,North,12.7,-,0.03,Rain,Light Rain,360,2013-05-03 09:44:00
4:53 AM,33.1,30.9,92,30.18,4.0,North,17.3,21.9,0.04,Rain,Rain,360,2013-05-03 09:53:00
5:08 AM,32.0,30.2,93,30.13,4.0,North,16.1,-,0.02,Snow,Light Snow,360,2013-05-03 10:08:00
5:16 AM,32.0,30.2,93,30.13,3.0,North,16.1,-,0.03,Snow,Light Snow,360,2013-05-03 10:16:00
5:53 AM,32.0,30.0,92,30.17,5.0,North,15.0,-,0.06,Snow,Light Snow,350,2013-05-03 10:53:00
6:24 AM,32.0,30.2,93,30.14,1.8,North,15.0,-,0.03,Snow,Light Snow,350,2013-05-03 11:24:00
6:51 AM,32.0,30.2,93,30.12,1.2,North,17.3,-,0.08,Snow,Light Snow,350,2013-05-03 11:51:00
6:53 AM,32.0,30.0,92,30.14,1.2,North,13.8,-,0.09,Snow,Light Snow,350,2013-05-03 11:53:00
6:56 AM,32.0,30.2,93,30.11,2.0,North,16.1,-,0.00,Snow,Light Snow,350,2013-05-03 11:56:00
7:04 AM,32.0,30.2,93,30.11,5.0,North,17.3,-,0.03,,Overcast,360,2013-05-03 12:04:00
7:18 AM,32.0,30.2,93,30.11,10.0,North,15.0,-,0.04,,Overcast,360,2013-05-03 12:18:00
7:53 AM,33.1,30.0,89,30.13,9.0,North,15.0,-,0.07,Rain,Light Rain,360,2013-05-03 12:53:00
8:53 AM,33.1,30.9,92,30.12,6.0,North,15.0,-,0.06,Rain,Light Rain,350,2013-05-03 13:53:00
9:53 AM,33.1,30.9,92,30.10,10.0,NNW,17.3,-,0.01,Rain,Light Rain,340,2013-05-03 14:53:00
10:04 AM,33.8,30.2,87,30.08,10.0,North,17.3,-,0.01,Rain,Light Rain,350,2013-05-03 15:04:00
10:53 AM,34.0,30.9,89,30.09,10.0,North,16.1,-,0.01,Rain,Light Rain,350,2013-05-03 15:53:00
11:53 AM,34.0,30.9,89,30.08,6.0,North,15.0,-,0.02,Rain,Rain,360,2013-05-03 16:53:00
12:53 PM,34.0,32.0,92,30.07,7.0,North,13.8,-,0.09,Rain,Light Rain,350,2013-05-03 17:53:00
1:53 PM,34.0,32.0,92,30.05,10.0,North,16.1,-,0.04,Rain,Light Rain,350,2013-05-03 18:53:00
2:53 PM,35.1,32.0,89,30.03,7.0,North,18.4,-,0.06,Rain,Light Rain,350,2013-05-03 19:53:00
3:53 PM,35.1,33.1,92,29.99,10.0,NNW,19.6,-,0.03,Rain,Light Rain,340,2013-05-03 20:53:00
4:53 PM,36.0,33.1,89,30.00,5.0,North,15.0,-,0.04,Rain,Light Rain,350,2013-05-03 21:53:00
5:53 PM,36.0,33.1,89,29.98,10.0,NNW,18.4,-,0.02,Rain,Light Rain,340,2013-05-03 22:53:00
6:53 PM,36.0,34.0,93,29.99,9.0,NNW,15.0,-,0.02,Rain,Light Rain,340,2013-05-03 23:53:00
7:14 PM,35.6,33.8,93,29.96,4.0,NNW,16.1,-,0.03,Rain,Light Rain,340,2013-05-04 00:14:00
7:53 PM,35.1,33.1,92,29.98,6.0,NNW,16.1,-,0.09,Rain,Light Rain,340,2013-05-04 00:53:00
8:16 PM,35.6,33.8,93,29.93,7.0,North,18.4,24.2,0.03,Rain,Rain,350,2013-05-04 01:16:00
8:53 PM,35.1,33.1,92,29.95,10.0,North,20.7,26.5,0.06,Rain,Light Rain,350,2013-05-04 01:53:00
9:53 PM,36.0,34.0,93,29.95,7.0,North,17.3,24.2,0.05,Rain,Rain,360,2013-05-04 02:53:00
10:53 PM,36.0,34.0,93,29.93,6.0,NNW,12.7,-,0.11,Rain,Rain,330,2013-05-04 03:53:00
11:53 PM,37.0,35.1,93,29.90,7.0,NNW,12.7,-,0.06,Rain,Light Rain,340,2013-05-04 04:53:00